Regional Weather Roundup
Issued by NWS Cleveland, OH

Home | Current Version | Previous Version | Text Only | Print | Product List | Glossary Off
Versions: 1 2 3 4 5 6 7 8 9 10 11 12 13 14 15 16 17 18 19 20 21 22 23 24 25 26 27 28 29 30 31 32 33 34 35 36 37 38 39 40 41 42 43 44 45 46 47 48 49 50

000
ASUS41 KCLE 021002
RWRCLE
OHIO REGIONAL WEATHER ROUNDUP
NATIONAL WEATHER SERVICE CLEVELAND, OH
600 AM EDT SUN AUG 02 2015

NOTE: "FAIR" INDICATES FEW OR NO CLOUDS BELOW 12,000 FEET WITH NO
SIGNIFICANT WEATHER AND/OR OBSTRUCTIONS TO VISIBILITY.

OHZ001>008-015>018-024>027-034-035-043-044-021100-
   NORTHWEST OHIO

CITY           SKY/WX    TMP DP  RH WIND       PRES   REMARKS
DEFIANCE       CLEAR     64  60  87 S5        29.92R
FINDLAY        CLEAR     67  59  75 SW5       29.91S
TOLEDO EXPRESS CLEAR     65  60  84 SW6       29.90R
TOLEDO EXEC    CLEAR     65  59  81 SW6       29.91R
LIMA           CLEAR     66  58  75 SW7       29.94S
$$

OHZ009>014-019>023-028>033-038-089-021100-
   NORTHEAST OHIO

CITY           SKY/WX    TMP DP  RH WIND       PRES   REMARKS
CLE-HOPKINS    PTCLDY    66  56  70 SW6       29.92F
CLE-LAKEFRONT  CLEAR     71  55  56 SW10      29.89S
CUY CO. ARPT   NOT AVBL
LORAIN-ELYRIA  CLEAR     62  56  80 SW3       29.92S
ASHTABULA      MOCLDY    60  56  86 CALM      29.92R
AKRON-CANTON   MOCLDY    66  57  72 SW5       29.94F
WOOSTER        PTCLDY    65  59  81 SW7       29.94F
MANSFIELD      MOCLDY    67  59  75 SW8       29.94F
YOUNGSTOWN     PTCLDY    63  57  81 S3        29.93S
$$

OHZ042-051>053-060>062-070>072-077>081-021100-
  SOUTHWEST OHIO

CITY           SKY/WX    TMP DP  RH WIND       PRES   REMARKS
CINC-COVINGTON MOCLDY    61  59  93 S3        29.98F
CINC-LUNKEN    MOCLDY    62  61  96 CALM      29.98F
HAMILTON       PTCLDY    61  60  97 CALM      29.98F
DAYTON         PTCLDY    65  59  81 SW7       29.97F
WRIGHT-PAT AFB CLEAR     65  60  83 SE2       29.96F
DAYTON GENERAL PTCLDY    64  58  80 CALM      29.97F
WILMINGTON     PTCLDY    62  57  83 S3        29.98F
$$

OHZ036-037-039>041-045>050-054>059-063>069-073>076-082>088-021100-
  CENTRAL AND SOUTHEAST OHIO

CITY           SKY/WX    TMP DP  RH WIND       PRES   REMARKS
COLUMBUS       PTCLDY    63  58  83 CALM      29.96S
OSU AIRPORT    PTCLDY    66  57  72 W7        29.96F
BOLTON FIELD   NOT AVBL
RICKENBACK AFB PTCLDY    61  58  90 S5        29.96S
NEWARK         PTCLDY    60  58  92 CALM      29.96S
MARION         CLEAR     68  56  65 SW9       29.94F
LANCASTER      PTCLDY    59  56  89 CALM      29.97F
ZANESVILLE     CLOUDY    61  57  87 S3        29.96F
NEW PHILLY     CLOUDY    62  61  96 CALM      29.96F
$$


USA.gov is the U.S. government's official web portal to all federal, state and local government web resources and services.